Location: Six Mile Lake
(44.9000°N, 79.7170°W)
Time: 19:09:39
(UTC-04:00)

ESTCUBE 1 - Pass Details

Date: 30 June 2022
Orbit: 646 x 657 km, 97.9° (Epoch: 07 August)

Event Time Altitude Azimuth Distance (km) Brightness Sun altitude
Exits shadow 00:49:37 11° 248° (WSW) 1,991 ? -21.5°
Maximum altitude 00:51:19 13° 271° (W) 1,860 ? -21.6°
Drops below altitude 10° 00:53:21 10° 298° (WNW) 2,053 ? -21.6°
Sets 00:56:49 0° 327° (NNW) 2,972 ? -21.7°
